Hourly Weather Bolshoy Hochuzh

Today, 30 July, Friday

Time Temperature Precipitation Wind Pressure Humidity
00:00 +17°C° 0 mm 2 mps 746 mmHg 96%
01:00 +18°C° 0 mm 1 mps 746 mmHg 96%
02:00 +18°C° 0 mm 1 mps 746 mmHg 96%
03:00 +18°C° 0 mm 1 mps 746 mmHg 96%
04:00 +18°C° 0 mm 1 mps 746 mmHg 95%
05:00 +18°C° 0 mm 1 mps 746 mmHg 94%
06:00 +19°C° 0 mm 1 mps 746 mmHg 88%
07:00 +19°C° 0 mm 2 mps 746 mmHg 82%
08:00 +21°C° 0 mm 2 mps 746 mmHg 76%
09:00 +21°C° 0 mm 2 mps 746 mmHg 72%
10:00 +21°C° 0 mm 3 mps 746 mmHg 67%
11:00 +21°C° 0 mm 3 mps 746 mmHg 63%
12:00 +22°C° 0 mm 3 mps 746 mmHg 58%
13:00 +24°C° 0 mm 3 mps 746 mmHg 53%
14:00 +25°C° 0 mm 4 mps 745 mmHg 48%
15:00 +25°C° 0 mm 3 mps 745 mmHg 47%
16:00 +25°C° 0 mm 3 mps 744 mmHg 46%
17:00 +25°C° 0 mm 3 mps 744 mmHg 44%
18:00 +24°C° 0 mm 3 mps 744 mmHg 47%
19:00 +22°C° 0 mm 3 mps 744 mmHg 49%
20:00 +21°C° 0 mm 3 mps 744 mmHg 51%
21:00 +20°C° 0 mm 3 mps 744 mmHg 55%
22:00 +18°C° 0 mm 3 mps 744 mmHg 58%
23:00 +17°C° 0 mm 3 mps 744 mmHg 61%

Tomorrow, 31 July, Saturday

Time Temperature Precipitation Wind Pressure Humidity
00:00 +17°C° 0 mm 4 mps 743 mmHg 62%
01:00 +17°C° 0 mm 4 mps 743 mmHg 63%
02:00 +16°C° 0 mm 5 mps 743 mmHg 64%
03:00 +16°C° 0 mm 5 mps 743 mmHg 63%
04:00 +17°C° 0 mm 5 mps 743 mmHg 63%
05:00 +17°C° 0 mm 6 mps 743 mmHg 62%
06:00 +19°C° 0 mm 5 mps 743 mmHg 63%
07:00 +19°C° 0 mm 5 mps 743 mmHg 64%
08:00 +20°C° 0 mm 5 mps 744 mmHg 65%
09:00 +20°C° 0 mm 5 mps 744 mmHg 63%
10:00 +21°C° 0 mm 5 mps 744 mmHg 61%
11:00 +22°C° 0 mm 5 mps 744 mmHg 59%
12:00 +22°C° 0.3 mm 5 mps 745 mmHg 62%
13:00 +23°C° 0.3 mm 5 mps 745 mmHg 65%
14:00 +23°C° 0.3 mm 5 mps 745 mmHg 68%
15:00 +23°C° 0.2 mm 5 mps 745 mmHg 67%
16:00 +23°C° 0.2 mm 4 mps 746 mmHg 65%
17:00 +23°C° 0.2 mm 4 mps 746 mmHg 64%
18:00 +22°C° 0 mm 3 mps 746 mmHg 69%
19:00 +21°C° 0 mm 2 mps 746 mmHg 74%
20:00 +19°C° 0 mm 2 mps 746 mmHg 79%
21:00 +19°C° 0 mm 2 mps 746 mmHg 81%
22:00 +18°C° 0 mm 2 mps 747 mmHg 83%
23:00 +18°C° 0 mm 2 mps 747 mmHg 85%

Day after tomorrow, 1 August, Sunday

Time Temperature Precipitation Wind Pressure Humidity
00:00 +18°C° 0 mm 2 mps 747 mmHg 84%
01:00 +17°C° 0 mm 2 mps 747 mmHg 83%
02:00 +17°C° 0 mm 2 mps 747 mmHg 82%
03:00 +17°C° 0 mm 2 mps 747 mmHg 80%
04:00 +17°C° 0 mm 2 mps 746 mmHg 78%
05:00 +17°C° 0 mm 3 mps 746 mmHg 77%
06:00 +18°C° 0 mm 3 mps 746 mmHg 75%
07:00 +20°C° 0 mm 3 mps 746 mmHg 73%
08:00 +21°C° 0 mm 4 mps 746 mmHg 71%
09:00 +22°C° 0.1 mm 4 mps 746 mmHg 68%
10:00 +23°C° 0.1 mm 4 mps 746 mmHg 66%
11:00 +25°C° 0.1 mm 4 mps 746 mmHg 64%
12:00 +26°C° 0.2 mm 4 mps 746 mmHg 54%
13:00 +28°C° 0.2 mm 4 mps 746 mmHg 45%
14:00 +29°C° 0.2 mm 5 mps 745 mmHg 36%
15:00 +29°C° 0 mm 4 mps 745 mmHg 37%
16:00 +29°C° 0 mm 4 mps 745 mmHg 38%
17:00 +28°C° 0 mm 4 mps 746 mmHg 38%
18:00 +26°C° 0 mm 3 mps 746 mmHg 47%
19:00 +24°C° 0 mm 3 mps 746 mmHg 55%
20:00 +20°C° 0 mm 2 mps 746 mmHg 64%
21:00 +19°C° 0 mm 2 mps 746 mmHg 66%
22:00 +20°C° 0 mm 1 mps 746 mmHg 69%
23:00 +19°C° 0 mm 1 mps 746 mmHg 72%

2 August, Monday

Time Temperature Precipitation Wind Pressure Humidity
00:00 +19°C° 0 mm 1 mps 747 mmHg 72%
01:00 +19°C° 0 mm 1 mps 747 mmHg 73%
02:00 +19°C° 0 mm 1 mps 747 mmHg 73%
03:00 +19°C° 0 mm 1 mps 747 mmHg 74%
04:00 +19°C° 0 mm 1 mps 746 mmHg 75%
05:00 +19°C° 0 mm 1 mps 746 mmHg 76%
06:00 +19°C° 0.2 mm 1 mps 746 mmHg 80%
07:00 +19°C° 0.2 mm 1 mps 745 mmHg 84%
08:00 +17°C° 0.2 mm 2 mps 745 mmHg 88%
09:00 +18°C° 0.5 mm 2 mps 745 mmHg 88%
10:00 +19°C° 0.5 mm 1 mps 745 mmHg 88%
11:00 +19°C° 0.5 mm 1 mps 744 mmHg 89%
12:00 +19°C° 0.6 mm 1 mps 744 mmHg 92%
13:00 +19°C° 0.6 mm 1 mps 744 mmHg 94%
14:00 +19°C° 0.6 mm 1 mps 743 mmHg 97%
15:00 +17°C° 3.1 mm 2 mps 743 mmHg 97%
16:00 +17°C° 3.1 mm 3 mps 743 mmHg 98%
17:00 +17°C° 3.1 mm 3 mps 743 mmHg 98%
18:00 +16°C° 0.7 mm 3 mps 743 mmHg 98%
19:00 +16°C° 0.7 mm 2 mps 744 mmHg 98%
20:00 +16°C° 0.7 mm 2 mps 744 mmHg 97%
21:00 +15°C° 0 mm 2 mps 744 mmHg 97%
22:00 +15°C° 0 mm 2 mps 744 mmHg 97%
23:00 +15°C° 0 mm 2 mps 744 mmHg 97%

3 August, Tuesday

Time Temperature Precipitation Wind Pressure Humidity
00:00 +15°C° 0 mm 2 mps 745 mmHg 97%
01:00 +13°C° 0 mm 3 mps 745 mmHg 97%
02:00 +13°C° 0 mm 3 mps 745 mmHg 97%
03:00 +13°C° 0 mm 3 mps 745 mmHg 97%
04:00 +13°C° 0 mm 3 mps 746 mmHg 97%
05:00 +13°C° 0 mm 2 mps 746 mmHg 97%
06:00 +13°C° 0 mm 3 mps 746 mmHg 93%
07:00 +14°C° 0 mm 3 mps 747 mmHg 88%
08:00 +17°C° 0 mm 4 mps 747 mmHg 83%
09:00 +18°C° 0.1 mm 4 mps 747 mmHg 76%
10:00 +19°C° 0.1 mm 4 mps 748 mmHg 69%
11:00 +20°C° 0.1 mm 4 mps 748 mmHg 61%
12:00 +20°C° 0 mm 4 mps 748 mmHg 57%
13:00 +21°C° 0 mm 4 mps 749 mmHg 53%
14:00 +21°C° 0 mm 4 mps 749 mmHg 49%
15:00 +22°C° 0 mm 3 mps 749 mmHg 49%
16:00 +22°C° 0 mm 3 mps 749 mmHg 50%
17:00 +22°C° 0 mm 3 mps 750 mmHg 51%
18:00 +20°C° 0 mm 2 mps 750 mmHg 59%
19:00 +18°C° 0 mm 2 mps 751 mmHg 68%
20:00 +16°C° 0 mm 1 mps 751 mmHg 77%
21:00 +15°C° 0 mm 1 mps 751 mmHg 79%
22:00 +15°C° 0 mm 1 mps 752 mmHg 81%
23:00 +13°C° 0 mm 0 mps 752 mmHg 83%

4 August, Wednesday

Time Temperature Precipitation Wind Pressure Humidity
00:00 +13°C° 0 mm 0 mps 752 mmHg 83%
01:00 +14°C° 0 mm 1 mps 752 mmHg 84%
02:00 +13°C° 0 mm 1 mps 753 mmHg 85%
03:00 +14°C° 0 mm 1 mps 753 mmHg 84%
04:00 +14°C° 0 mm 1 mps 753 mmHg 83%
05:00 +14°C° 0 mm 1 mps 753 mmHg 83%
06:00 +15°C° 0 mm 1 mps 754 mmHg 77%
07:00 +18°C° 0 mm 1 mps 754 mmHg 72%
08:00 +19°C° 0 mm 1 mps 754 mmHg 67%
09:00 +20°C° 0 mm 1 mps 754 mmHg 61%
10:00 +22°C° 0 mm 1 mps 754 mmHg 55%
11:00 +23°C° 0 mm 2 mps 754 mmHg 49%
12:00 +24°C° 0 mm 2 mps 754 mmHg 46%
13:00 +25°C° 0 mm 2 mps 754 mmHg 43%
14:00 +25°C° 0 mm 2 mps 754 mmHg 40%
15:00 +24°C° 0 mm 2 mps 754 mmHg 47%
16:00 +23°C° 0 mm 1 mps 753 mmHg 54%
17:00 +22°C° 0 mm 1 mps 753 mmHg 60%
18:00 +21°C° 0 mm 1 mps 754 mmHg 64%
19:00 +20°C° 0 mm 1 mps 754 mmHg 69%
20:00 +19°C° 0 mm 1 mps 754 mmHg 73%
21:00 +18°C° 0.2 mm 1 mps 754 mmHg 79%
22:00 +16°C° 0.2 mm 1 mps 754 mmHg 84%
23:00 +15°C° 0.2 mm 1 mps 754 mmHg 90%
Show more

We Need Your Consent

Meteoprog and our Service Providers may store and access personal data such as cookies, device identifiers or other similar technologies on your device and process such data to personalise content and ads, as well as provide social media features and to analyse the traffic.

  • Store and/or access information on your device

    Cookies, device identifiers or other information can be stored or accessed on your device for the purposes indicated above.

  • Personalised ads and content, ad and content measurement, audience insights, and products development

    Ads and content can be personalised based on a profile. More data can be added to better personalise ads and content. Ad and content performance can be measured. Insights about the audience who saw the ads and content can be derived. Such data can be used to develop or improve user’s experience, systems and software.

By clicking ‘I Agree’ you will allow the use of indicated cookies, device identifiers, web beacons or other similar technologies. Your settings can be changed in the browser on your device.

For certain purposes, legitimate interests may be relied on, rather than consent. You can read more about this in our Privacy and Cookie Policy.